Tracking 27382 objects as of 5-Jun-2023
HD Live streaming from Space Station
objects crossing your sky now

SL-8 DEB *

Track SL-8 DEB * now!
10-day predictions


NORAD ID: 18504
Int'l Code: 1976-098E
Perigee: 632.0 km
Apogee: 648.1 km
Inclination: 74.0 °
Period: 97.4 minutes
Semi major axis: 7011 km
RCS: 0.0123 m2 (small)
Launch date: September 29, 1976
Source: Commonwealth of Independent States (former USSR) (CIS)
Launch site: PLESETSK MISSILE AND SPACE COMPLEX (PKMTR)

Note: This is SATELLITE DEBRIS
Your satellite tracking list
Your tracking list is empty




NASA's NSSDC Master Catalog

Two Line Element Set (TLE):
1 18504U 76098E   23155.69505660  .00004247  00000-0  58027-3 0  9993
2 18504  74.0365 247.7928 0011468 338.2912 171.9553 14.78870883 30291
Source of the keplerian elements: AFSPC